Regional Weather Roundup
Issued by NWS

Home | Current Version | Previous Version | Text Only | Print | Product List | Glossary On
Versions: 1 2 3 4 5 6 7 8 9 10 11 12 13 14 15 16 17 18 19 20 21 22 23 24 25 26 27 28 29 30 31 32 33 34 35 36 37 38 39 40 41 42 43 44 45 46 47 48 49 50
264
ASUS42 KFFC 170210
RWRGA
WEATHER ROUNDUP FOR GEORGIA
NATIONAL WEATHER SERVICE PEACHTREE CITY GA
1000 PM EDT MON OCT 16 2017

NOTE: "FAIR" INDICATES FEW OR NO CLOUDS BELOW 12,000 FEET WITH NO
SIGNIFICANT WEATHER AND/OR OBSTRUCTIONS TO VISIBILITY.

* = USE WITH CAUTION. THE STATIONS MARKED WITH AN ASTERISK MAY NOT
REPORT WEATHER SUCH AS PRECIPITATION, FOG, OR THUNDER AND ARE NOT
QUALITY CONTROLLED BY NWS.

THE REMARK "TC" DENOTES TEMPERATURE READING IN DEGREES CELSIUS.

GAZ001>058-170300-
NORTH GEORGIA

CITY           SKY/WX    TMP DP  RH WIND       PRES   REMARKS
ATLANTA        MOCLDY    58  44  60 N12       30.19R
ATHENS         CLEAR     59  43  55 NE9G20    30.20R
CHAMBLEE       CLEAR     53  43  68 N6        30.21R
PEACHTREE CITY CLEAR     58  45  62 N10       30.19R
ROME           CLEAR     56  46  69 N10       30.23R
WEST ATLANTA   CLEAR     55  46  71 N6        30.20R
GAINESVILLE    PTCLDY    56  44  64 NE5       30.23R
CARTERSVILLE   CLEAR     55  45  68 VRB3      30.23R


CITY           SKY/WX    TMP DP  RH WIND       PRES   REMARKS
DALTON*        CLEAR     52  46  82 CALM      30.27R
LAWRENCEVILLE* PTCLDY    57  46  66 VRB3        N/A
MARIETTA       PTCLDY    55  43  63 N6        30.20R
KENNESAW*      CLEAR     55  44  66 N3        30.22R
CANTON*        CLEAR     55  45  67 N3        30.23R
$$

GAZ059>098-102>109-170300-
CENTRAL GEORGIA

CITY           SKY/WX    TMP DP  RH WIND       PRES   REMARKS
AUGUSTA-BUSH   CLEAR     64  54  69 NE9       30.17R
AUGUSTA-DANIEL CLEAR     65  52  62 NE10      30.18R
COLUMBUS       CLEAR     62  45  53 NE10G21   30.14R
MACON          PTCLDY    63  50  62 N9        30.13R
ROBINS AFB     MOCLDY    64  51  62 N8        30.11R


CITY           SKY/WX    TMP DP  RH WIND       PRES   REMARKS
LAGRANGE*      CLEAR     59  46  63 N8        30.17S
SYLVANIA*      MOCLDY    65  55  71 NE9       30.14R
MILLEDGEVILLE* PTCLDY    70  57  64 E12G18    30.16R
$$

GAZ099>101-110>166-170300-
SOUTH GEORGIA

CITY           SKY/WX    TMP DP  RH WIND       PRES   REMARKS
SAVANNAH       CLOUDY    66  57  72 N14G21    30.11R
VALDOSTA       PTCLDY    72  58  61 N12       30.04R
ALMA           CLOUDY    73  61  65 N10       30.05R
ST SIMONS      MOCLDY    74  72  93 MISG      30.02R
FT STEWART     CLOUDY    68  63  82 N12G24    30.07R
ALBANY         PTCLDY    65  50  58 N7        30.11R
HUNTER AFB     CLOUDY    65  59  80 N16G22    30.07R
MOODY AFB      PTCLDY    71  55  58 N12       30.05R
BRUNSWICK      CLOUDY    73  68  83 NE17      30.03R


CITY           SKY/WX    TMP DP  RH WIND       PRES   REMARKS
BAINBRIDGE*    MOCLDY    66  59  77 N6        30.09R
MOULTRIE*      PTCLDY    68  52  56 N7        30.08S
VIDALIA*       PTCLDY    68  61  77 NE18G26   30.11R
WAYCROSS*      CLOUDY    75  60  60 N10       30.04R
DOUGLAS*       CLOUDY    70  55  60 N9        30.08R
$$




USA.gov is the U.S. government's official web portal to all federal, state and local government web resources and services.